Fredericton, New Brunswick

10:29 PM ADT on September 28, 2016 (GMT -0300)
Fredericton

Weather History for CYFC - November, 2012

Change the Weather History Date:

Thursday, November 1, 2012

  Actual Average Record
Temperature  
Mean Temperature 56 °F -  
Max Temperature 61 °F 45 °F 65 °F (2013)
Min Temperature 50 °F 32 °F 24 °F (2011)
Degree Days  
Heating Degree Days 9    
Growing Degree Days 6 (Base 50)    
Moisture  
Dew Point 50 °F    
Average Humidity 73    
Maximum Humidity 82    
Minimum Humidity 65    
Precipitation  
Precipitation 0.04 in - - ()
Sea Level Pressure  
Sea Level Pressure 29.51 in    
Wind  
Wind Speed 5 mph ()    
Max Wind Speed 13 mph    
Max Gust Speed 20 mph    
Visibility 6.5 miles    
Events Rain    
Averages and records for this station are not official NWS values.
T = Trace of Precipitation, MM = Missing Value Source: Averaged Metar Reports

Daily Weather History Graph

Daily Weather History Graph

Search for Another Location

Airport or City:

Trip Planner

Search our weather history database for the weather conditions in past years. The results will help you decide how hot, cold, wet, or windy it might be!

Date:

Astronomy

Nov. 01, 2012 Rise Set
Actual Time 8:07 AM ADT 6:11 PM ADT
Civil Twilight 7:35 AM ADT 6:42 PM ADT
Nautical Twilight 7:00 AM ADT 7:18 PM ADT
Astronomical Twilight 6:25 AM ADT 7:52 PM ADT
Moon 7:58 PM ADT (11/1) 10:43 AM ADT (11/1)
Length of Visible Light 11h 07m
Length of Day
10h 04m
Waning Gibbous, 93% of the Moon is Illuminated
Nov 1
Waning Gibbous
Nov 6
Last Quarter
Nov 13
New
Nov 20
First Quarter
Nov 28
Full

Hourly Weather History & Observations

Time (ADT) Temp. Dew Point Humidity Pressure Visibility Wind Dir Wind Speed Gust Speed Precip Events Conditions
12:00 AM 59.0 °F - N/A% 29.54 in 9.0 mi ESE 4.6 mph - N/A   Overcast
12:07 AM 59.0 °F - N/A% 29.54 in 9.0 mi SE 4.6 mph - N/A   Overcast
12:09 AM 59.0 °F - N/A% 29.54 in 9.0 mi SE 4.6 mph - N/A   Overcast
1:00 AM 59.0 °F - N/A% 29.54 in 9.0 mi SSE 5.8 mph - N/A   Overcast
1:29 AM 57.2 °F - N/A% 29.54 in 9.0 mi SSE 5.8 mph - N/A   Mostly Cloudy
1:51 AM 57.2 °F - N/A% 29.55 in 9.0 mi SSE 5.8 mph - N/A   Mostly Cloudy
2:00 AM 57.2 °F - N/A% 29.55 in 9.0 mi SSE 5.8 mph - N/A   Overcast
2:26 AM 57.2 °F - N/A% 29.55 in 9.0 mi South 5.8 mph - N/A   Mostly Cloudy
2:48 AM 55.4 °F - N/A% 29.55 in 9.0 mi South 5.8 mph - N/A   Mostly Cloudy
3:00 AM 56 °F - % 29.55 in 10 mi South 5.8 mph - -  
3:00 AM 57.2 °F - N/A% 29.55 in 9.0 mi South 5.8 mph - N/A   Mostly Cloudy
3:30 AM 55.4 °F - N/A% 29.55 in 9.0 mi South 5.8 mph - N/A   Scattered Clouds
3:50 AM 55.4 °F - N/A% 29.56 in 9.0 mi SSW 5.8 mph - N/A   Scattered Clouds
4:00 AM 55.4 °F - N/A% 29.55 in 9.0 mi South 5.8 mph - N/A   Scattered Clouds
5:00 AM 55.4 °F - N/A% 29.56 in 9.0 mi South 5.8 mph - N/A   Overcast
6:00 AM 53.6 °F - N/A% 29.56 in 9.0 mi South 5.8 mph - N/A   Overcast
7:00 AM 53.6 °F - N/A% 29.57 in 9.0 mi South 4.6 mph - N/A   Overcast
8:00 AM 53.6 °F - N/A% 29.57 in 9.0 mi South 4.6 mph - N/A   Overcast
8:59 AM 53.6 °F - N/A% 29.58 in 9.0 mi South 5.8 mph - N/A   Overcast
9:00 AM 53 °F - % 29.59 in 10 mi South 5.8 mph - -   Overcast
9:00 AM 53.6 °F - N/A% 29.58 in 9.0 mi South 5.8 mph - N/A   Overcast
10:00 AM 53.6 °F - N/A% 29.59 in 9.0 mi SE 4.6 mph - N/A   Overcast
11:00 AM 55.4 °F 50.0 °F 82% 29.58 in 9.0 mi South 5.8 mph - N/A   Mostly Cloudy
12:00 PM 57.2 °F 48.2 °F 72% 29.59 in 9.0 mi South 8.1 mph - N/A   Overcast
1:00 PM 59.0 °F 48.2 °F 67% 29.57 in 9.0 mi South 8.1 mph - N/A   Overcast
2:00 PM 59.0 °F 48.2 °F 67% 29.54 in 9.0 mi ESE 5.8 mph - N/A   Mostly Cloudy
3:00 PM 58 °F 49 °F 65% 29.52 in 10 mi East 3.5 mph - -   Overcast
3:00 PM 59.0 °F 50.0 °F 72% 29.52 in 9.0 mi East 4.6 mph - N/A   Overcast
3:04 PM 59.0 °F 50.0 °F 72% 29.52 in 9.0 mi ESE 6.9 mph - N/A Rain Light Rain
3:15 PM 59.0 °F 50.0 °F 72% 29.51 in 9.0 mi SE 9.2 mph - N/A   Overcast
3:29 PM 59.0 °F 50.0 °F 72% 29.51 in 9.0 mi ESE 8.1 mph - N/A Rain Light Rain
3:45 PM 59.0 °F 50.0 °F 72% 29.51 in 9.0 mi ESE 6.9 mph - N/A   Overcast
3:52 PM 57.2 °F 50.0 °F 77% 29.51 in 9.0 mi ESE 11.5 mph - N/A Rain Light Rain
4:00 PM 57.2 °F 51.8 °F 82% 29.51 in 9.0 mi SE 8.1 mph - N/A Rain Light Rain
4:48 PM 53.6 °F - N/A% 29.52 in 5.0 mi SSE 8.1 mph - N/A Rain Light Rain
5:00 PM 53.6 °F - N/A% 29.51 in 4.0 mi SSE 8.1 mph - N/A Rain Light Rain
5:07 PM 53.6 °F - N/A% 29.51 in 6.0 mi SE 5.8 mph - N/A Rain Light Rain
5:11 PM 53.6 °F - N/A% 29.51 in 5.0 mi SE 4.6 mph - N/A Rain Light Rain
5:24 PM 53.6 °F - N/A% 29.50 in 6.0 mi ESE 4.6 mph - N/A Rain Light Rain
5:31 PM 53.6 °F - N/A% 29.50 in 6.0 mi East 3.5 mph - N/A Rain Light Rain
5:32 PM 53.6 °F - N/A% 29.50 in 5.0 mi East 4.6 mph - N/A Rain Light Rain
5:38 PM 53.6 °F - N/A% 29.50 in 6.0 mi ENE 4.6 mph - N/A Rain Light Rain
5:45 PM 53.6 °F - N/A% 29.49 in 9.0 mi NE 3.5 mph - N/A   Overcast
6:00 PM 53.6 °F - N/A% 29.49 in 9.0 mi NNE 3.5 mph - N/A   Overcast
6:17 PM 53.6 °F - N/A% 29.49 in 9.0 mi NNE 2.3 mph - N/A Rain Light Rain
6:32 PM 53.6 °F - N/A% 29.49 in 5.0 mi NNE 2.3 mph - N/A Rain Light Rain
6:37 PM 53.6 °F - N/A% 29.49 in 2.5 mi NE 2.3 mph - N/A Rain Light Rain
6:38 PM 53.6 °F - N/A% 29.49 in 2.5 mi NE 3.5 mph - N/A Rain Light Rain
6:40 PM 53.6 °F - N/A% 29.49 in 1.8 mi NNE 2.3 mph - N/A Rain Light Rain
6:46 PM 53.6 °F - N/A% 29.49 in 2.2 mi NNE 3.5 mph - N/A Rain Light Rain
6:48 PM 53.6 °F - N/A% 29.49 in 3.0 mi NNE 4.6 mph - N/A Rain Light Rain
6:51 PM 53.6 °F - N/A% 29.49 in 6.0 mi NE 3.5 mph - N/A Rain Light Rain
6:53 PM 53.6 °F - N/A% 29.49 in 8.0 mi NE 4.6 mph - N/A   Overcast
7:00 PM 53.6 °F - N/A% 29.49 in 9.0 mi NE 4.6 mph - N/A   Overcast
7:13 PM 53.6 °F - N/A% 29.49 in 5.0 mi NE 2.3 mph - N/A   Haze
7:30 PM 53.6 °F - N/A% 29.49 in 2.5 mi ENE 6.9 mph - N/A   Overcast
7:33 PM 53.6 °F - N/A% 29.49 in 2.5 mi East 4.6 mph - N/A Rain Light Rain
7:40 PM 53.6 °F - N/A% 29.49 in 3.0 mi East 6.9 mph - N/A Rain Light Rain
7:46 PM 53.6 °F - N/A% 29.49 in 5.0 mi SE 4.6 mph - N/A   Haze
7:47 PM 53.6 °F - N/A% 29.49 in 6.0 mi East 4.6 mph - N/A   Haze
7:54 PM 53.6 °F - N/A% 29.49 in 9.0 mi SSW 4.6 mph - N/A   Overcast
7:56 PM 53.6 °F - N/A% 29.49 in 9.0 mi SSE 6.9 mph - N/A   Overcast
8:00 PM 53.6 °F - N/A% 29.49 in 9.0 mi ESE 6.9 mph - N/A   Overcast
8:17 PM 53.6 °F - N/A% 29.49 in 7.0 mi ESE 3.5 mph - N/A Rain Light Rain
8:43 PM 53.6 °F - N/A% 29.49 in 5.0 mi SSE 3.5 mph - N/A Rain Light Rain
8:44 PM 53.6 °F - N/A% 29.49 in 5.0 mi SSE 3.5 mph - N/A Rain Light Rain
9:00 PM 53 °F - % 29.49 in 5 mi SSE 3.5 mph - -   Overcast
9:00 PM 53.6 °F - N/A% 29.49 in 5.0 mi SSE 3.5 mph - N/A Rain Light Rain
9:11 PM 53.6 °F - N/A% 29.49 in 2.0 mi SSE 3.5 mph - N/A Rain Light Rain
9:22 PM 53.6 °F - N/A% 29.48 in 3.0 mi Calm Calm - N/A Rain Light Rain
9:27 PM 53.6 °F - N/A% 29.48 in 3.0 mi Calm Calm - N/A   Overcast
9:44 PM 53.6 °F - N/A% 29.48 in 3.0 mi Calm Calm - N/A   Overcast
9:57 PM 53.6 °F - N/A% 29.48 in 6.0 mi SSE 2.3 mph - N/A   Haze
10:00 PM 53.6 °F - N/A% 29.48 in 7.0 mi South 2.3 mph - N/A   Overcast
10:04 PM 53.6 °F - N/A% 29.48 in 5.0 mi South 3.5 mph - N/A   Haze
10:08 PM 53.6 °F - N/A% 29.48 in 2.5 mi SSW 3.5 mph - N/A   Overcast
10:13 PM 53.6 °F - N/A% 29.48 in 2.0 mi SSW 4.6 mph - N/A Rain Light Rain
10:20 PM 53.6 °F - N/A% 29.48 in 3.0 mi SSW 6.9 mph - N/A Rain Light Rain
10:23 PM 53.6 °F - N/A% 29.48 in 3.0 mi SW 6.9 mph - N/A   Overcast
10:33 PM 51.8 °F - N/A% 29.48 in 3.0 mi SSW 6.9 mph - N/A   Overcast
10:46 PM 51.8 °F - N/A% 29.48 in 4.0 mi SSW 5.8 mph - N/A   Haze
10:53 PM 51.8 °F - N/A% 29.48 in 6.0 mi South 5.8 mph - N/A   Haze
10:57 PM 51.8 °F - N/A% 29.48 in 6.0 mi SSW 6.9 mph - N/A   Haze
10:59 PM 51.8 °F - N/A% 29.48 in 5.0 mi SSW 6.9 mph - N/A   Haze
11:00 PM 51.8 °F - N/A% 29.48 in 5.0 mi SSW 6.9 mph - N/A   Haze
11:03 PM 51.8 °F - N/A% 29.48 in 5.0 mi SSW 6.9 mph - N/A   Haze
11:12 PM 51.8 °F - N/A% 29.48 in 2.5 mi SSW 9.2 mph - N/A   Overcast
11:17 PM 51.8 °F - N/A% 29.48 in 2.0 mi SSW 12.7 mph - N/A Rain Light Rain
11:25 PM 51.8 °F - N/A% 29.48 in 3.0 mi SW 11.5 mph 19.6 mph N/A Rain Light Rain
11:27 PM 51.8 °F - N/A% 29.48 in 3.0 mi SW 10.4 mph 19.6 mph N/A Rain Light Rain
11:30 PM 51.8 °F - N/A% 29.48 in 5.0 mi SW 9.2 mph 17.3 mph N/A   Haze
11:32 PM 51.8 °F - N/A% 29.48 in 6.0 mi SW 8.1 mph - N/A   Haze
11:54 PM 50.0 °F - N/A% 29.49 in 9.0 mi SSW 5.8 mph - N/A   Overcast